Starlink 33842

operational
NORAD ID: 63782 Int'l Des: 2025-091 Owner: SPXS Country: US Constellation: starlink
LEOCIRCULAR

Über Starlink 33842

Beschreibung wird geladen...

Live-Position

3D-Globus wird geladen...

Nächste Überflüge

Höhenverlauf

Altitude vs Time

uPlot chart will show altitude changes over time

Zweizeiliger Elementsatz

1 63782U 25091H 25353.79823709 -.00001934 00000-0 -60724-4 0 9998
2 63782 43.0039 143.7320 0002294 274.7055 85.3535 15.27587548 36778
Epoch: 19. Dez. 2025 • Age: 15 hours

Aktueller Status

Höhe 489.9 km
Geschwindigkeit 7.62 km/s
Subsatellitenpunkt -30.38°S, 147.51°W
Startdatum 2. Mai 2025
Alter 0.6 years
Typ internet

Technische Details

Klassifizierung Payload
Masse 575.00 kg
Trockenmasse 530.00 kg
Gesamtmasse 575.00 kg
Länge 0.30 m
Durchmesser 4.10 m
Spannweite 29.00 m
Form Box + pan
Hersteller SPXS
Bus-Typ Starlink V2MO
Phasenstatus In Orbit
Besitzer/Staat SPXS/US

Große Konstellationen

Loading constellations...